Date,TemperatureHighF,TemperatureAvgF,TemperatureLowF,DewpointHighF,DewpointAvgF,DewpointLowF,HumidityHigh,HumidityAvg,HumidityLow,PressureMaxIn,PressureMinIn,WindSpeedMaxMPH,WindSpeedAvgMPH,GustSpeedMaxMPH,PrecipitationSumIn
2013-7-3,77,68,65,59,58,55,81,71,47,29.94,29.92,1,0,4,0.00
2013-7-4,83,72,58,67,62,55,90,72,50,29.94,29.84,15,2,15,0.00
2013-7-5,85,75,63,66,62,59,88,66,48,29.90,29.79,20,2,20,0.00
2013-7-6,88,78,68,72,67,62,83,69,55,29.85,29.78,18,2,18,0.00
2013-7-7,86,78,70,75,71,67,89,77,65,29.80,29.75,16,1,16,0.04
2013-7-8,86,76,70,75,70,67,90,83,64,29.89,29.76,8,0,8,0.00
2013-7-9,82,74,67,74,69,64,90,85,70,29.90,29.69,22,2,22,0.85
2013-7-10,78,70,62,69,60,56,90,73,49,29.95,29.75,20,2,20,0.00
2013-7-11,84,74,59,66,60,55,90,65,41,30.05,29.95,9,1,9,0.00
2013-7-12,84,74,64,66,62,60,86,68,48,30.02,29.90,18,2,18,0.00
2013-7-13,80,72,64,66,63,60,90,75,60,30.03,29.91,19,1,19,0.04
2013-7-14,85,75,66,71,66,62,89,73,55,30.13,30.03,17,2,17,0.00
2013-7-15,89,77,66,74,68,62,90,75,52,30.18,30.10,17,1,17,0.00
2013-7-16,91,82,74,76,72,70,89,74,54,30.14,30.08,16,3,16,0.00
2013-7-17,90,82,73,75,72,69,88,72,53,30.16,30.03,13,2,13,0.00
2013-7-18,92,84,75,75,72,70,86,69,50,30.03,29.67,26,6,26,0.00
2013-7-19,84,79,69,74,67,59,85,68,48,29.76,29.59,21,6,21,0.01
2013-7-20,79,70,63,63,59,50,89,70,53,29.91,29.74,8,0,8,0.00
2013-7-21,74,65,60,67,59,50,88,80,63,29.92,29.79,4,0,5,0.12
2013-7-22,84,71,61,76,64,57,89,81,66,29.81,29.55,16,2,16,0.14
2013-7-23,75,64,54,60,54,51,92,74,46,29.96,29.72,12,0,12,0.00
2013-7-24,74,62,49,59,53,46,90,74,49,30.03,29.93,10,1,10,0.00
2013-7-25,80,69,57,67,61,54,88,78,57,29.94,29.82,16,3,16,0.00
2013-7-26,71,64,51,62,58,47,89,82,63,29.96,29.79,20,3,22,0.28
2013-7-27,56,52,47,51,48,44,90,86,75,29.96,29.82,17,3,19,0.06
2013-7-28,69,57,48,58,52,45,92,83,64,30.00,29.85,16,2,16,0.00
2013-7-29,77,63,49,60,54,46,90,75,49,30.09,30.00,9,1,9,0.00
2013-7-30,72,66,61,65,61,57,89,84,74,30.08,29.98,9,0,9,0.03
2013-7-31,78,69,58,66,61,53,89,77,51,30.00,29.87,19,3,19,0.00